CAPE
0 0 0 0 0 0 0 0 0 0 0 0 1 17 0 0 1129 1419 1755 2203 2335 2371 2389 2402 2457 2651 2467 2210 1576 1206 1080 766 686 480 392 431 283 207 134 89 100 44 13
0 0 4 0 0 0 0 0 0 9 3 0 0 1 121 230 234 1723 2447 2656 2898 2862 2878 2728 2764 2602 2347 1900 1568 1252 1086 849 587 593 383 432 360 198 30 67 45 83 38
0 0 0 0 0 0 0 0 0 0 0 11 5 0 0 216 601 839 2002 2276 2490 2572 2547 2676 2617 2419 2115 1749 1731 1265 981 798 582 415 327 219 236 149 84 10 10 8 0
0 0 0 0 0 0 0 0 6 0 11 0 15 64 28 23 321 1133 1261 1595 1816 2226 2532 2720 2363 2285 1937 1892 1769 1435 1039 807 529 373 233 209 149 27 0 4 0 0 0
0 0 0 0 0 0 0 0 0 1 0 0 0 13 133 76 97 704 1490 1710 2447 2534 2410 2474 2344 1992 1770 1779 1620 1251 678 557 433 322 356 223 90 22 0 0 2 3 3
0 0 0 0 0 0 0 0 7 0 0 0 0 0 102 146 69 269 1344 1845 2286 2120 2280 2380 2074 1888 1743 1677 1581 1072 658 524 330 373 262 194 106 64 0 0 3 4 3
0 0 0 0 0 0 0 0 20 5 0 0 0 11 0 109 193 66 517 1604 1985 1896 2131 2068 1666 1314 1141 942 808 607 448 428 380 287 303 78 82 92 12 37 23 15 5
0 0 0 0 0 0 0 0 2 3 0 0 0 0 0 192 295 289 690 1239 1763 1760 1825 1656 1172 930 749 697 591 395 221 275 221 170 105 75 78 90 33 13 19 27 26
0 0 0 0 0 0 0 0 0 6 4 0 16 39 129 182 262 375 525 1098 1566 1548 1488 1528 1099 947 638 508 440 271 189 28 0 1 7 18 32 29 65 40 53 38 45
0 0 0 0 0 0 0 0 0 4 71 19 13 42 98 77 211 429 340 1037 1309 1004 1063 1169 1020 727 562 569 475 361 194 18 0 0 0 0 3 25 3 17 26 41 16
0 0 0 0 0 0 0 0 0 0 16 29 2 15 45 187 433 361 522 1211 997 718 911 760 411 354 261 187 398 350 220 4 0 0 0 0 26 23 29 74 39 25 33
0 1 0 0 0 0 2 0 0 0 118 108 6 0 0 1 406 502 611 1025 876 809 697 278 65 58 32 15 82 15 0 0 0 0 4 12 16 9 19 18 34 29 41
3 0 0 0 9 0 1 0 32 124 83 98 41 0 62 1 159 276 472 723 699 684 328 80 0 0 0 0 0 0 0 0 0 11 4 30 35 13 1 0 6 4 36
2 4 0 2 0 0 0 21 54 8 45 140 79 62 90 36 184 14 191 138 141 62 0 0 0 0 0 0 0 0 0 0 0 13 15 26 64 17 3 0 0 4 1
3 5 13 1 0 0 0 2 84 157 194 114 148 193 479 203 71 31 380 219 110 13 0 0 0 0 0 0 0 0 0 0 2 0 0 2 5 7 3 1 3 4 3
5 3 3 0 0 0 0 3 1 9 17 13 26 272 567 171 0 1 16 37 0 0 0 0 0 0 0 0 0 0 0 0 8 0 0 0 13 10 13 11 8 6 15
1 2 4 4 20 49 3 0 0 0 0 0 0 145 138 0 3 0 0 0 0 0 0 0 0 0 0 0 0 0 0 9 22 9 8 11 9 5 0 2 9 27 4
2 0 3 8 12 22 20 17 31 16 41 7 0 76 0 0 0 0 0 0 0 0 0 0 0 0 0 0 0 0 0 16 19 18 24 27 7 17 18 15 13 8 6
0 1 0 2 16 20 40 89 54 65 17 0 1 0 0 0 0 0 0 0 0 0 0 2 0 0 0 0 0 0 1 11 9 14 14 14 15 18 12 3 5 6 0
0 16 10 2 22 76 66 50 31 2 5 2 1 0 0 0 0 0 0 0 0 0 3 3 1 1 4 2 0 1 2 8 10 11 22 23 17 22 22 18 8 2 4
0 12 65 64 37 111 23 16 26 3 3 1 0 0 0 0 0 0 0 0 0 6 7 4 1 3 6 0 0 0 3 9 15 14 12 21 15 17 14 8 8 16 17
3 0 0 0 5 39 9 2 2 2 2 1 0 0 0 0 0 0 1 4 3 4 11 5 18 14 10 0 0 6 2 6 8 10 12 19 21 19 10 13 0 3 0
118 105 13 41 26 3 1 1 1 1 0 0 0 0 1 0 0 0 1 0 0 0 1 1 2 1 0 0 0 2 4 0 0 0 0 1 4 8 0 0 0 0 0
45 19 6 0 0 0 1 1 0 0 0 0 0 0 0 0 0 0 0 0 0 0 0 0 0 0 0 0 0 0 0 0 0 0 0 0 0 0 0 0 0 0 0
17 2 0 0 0 1 1 1 1 1 0 0 0 0 0 0 0 0 0 0 0 0 0 0 0 0 0 0 0 0 0 0 0 0 0 0 0 0 0 0 0 0 0
0 0 0 0 0 0 0 0 1 1 1 0 0 0 0 0 0 0 0 0 0 0 0 0 0 0 0 0 0 0 0 0 0 0 0 0 0 0 0 0 0 0 0
CIN
-0 -0 -0 -0 -0 -0 -0 -0 -0 -0 -0 -0 -65 -235 -28 -0 -29 -51 -59 -41 -17 -39 -43 -37 -59 -45 -33 -43 -35 -63 -67 -66 -36 -27 -96 -81 -86 -90 -89 -117 -91 -80 -75
-0 -1 -29 -3 -0 -0 -0 -0 -0 -160 -216 -0 -0 -11 -150 -103 -102 -16 -5 -3 -7 -7 -11 -11 -14 -20 -32 -25 -43 -67 -54 -42 -30 -11 -77 -68 -76 -93 -120 -97 -88 -57 -62
-0 -0 -0 -0 -0 -0 -0 -0 -0 -0 -0 -170 -239 -0 -40 -113 -87 -87 -21 -13 -6 -8 -9 -11 -15 -18 -20 -25 -27 -51 -44 -27 -23 -32 -42 -97 -126 -110 -110 -44 -71 -81 -0
-0 -0 -0 -0 -0 -0 -0 -0 -15 -0 -27 -0 -66 -101 -201 -187 -98 -48 -53 -47 -34 -12 -12 -16 -19 -17 -22 -29 -24 -20 -21 -15 -23 -29 -53 -78 -113 -65 -0 -84 -0 -0 -0
-0 -0 -0 -0 -0 -0 -0 -0 -0 -3 -0 -0 -0 -144 -86 -126 -104 -48 -27 -30 -12 -10 -16 -16 -22 -25 -18 -20 -26 -32 -50 -25 -28 -45 -37 -69 -107 -108 -0 -0 -123 -115 -49
-0 -0 -0 -0 -0 -0 -0 -0 -15 -0 -0 -0 -0 -0 -78 -55 -98 -67 -8 -17 -25 -23 -13 -19 -18 -12 -15 -21 -17 -25 -34 -26 -33 -32 -43 -48 -96 -74 -1 -0 -76 -79 -61
-0 -0 -0 -0 -0 -0 -0 -0 -9 -10 -0 -0 -0 -27 -0 -108 -48 -156 -34 -12 -10 -25 -23 -20 -25 -60 -71 -79 -65 -60 -53 -43 -41 -41 -27 -59 -70 -65 -65 -51 -53 -45 -42
-0 -0 -0 -0 -0 -0 -0 -0 -36 -7 -0 -0 -0 -0 -0 -67 -48 -36 -38 -25 -6 -18 -26 -32 -59 -96 -123 -84 -75 -78 -103 -62 -55 -58 -64 -61 -64 -49 -67 -48 -54 -32 -18
-0 -0 -0 -0 -0 -0 -0 -0 -0 -49 -6 -0 -8 -17 -87 -85 -65 -55 -62 -28 -10 -19 -31 -33 -73 -89 -127 -94 -73 -68 -78 -88 -0 -18 -17 -87 -64 -55 -43 -23 -5 -11 -3
-0 -0 -0 -0 -0 -0 -0 -0 -0 -74 -47 -13 -12 -18 -67 -131 -70 -61 -101 -48 -16 -46 -55 -59 -66 -100 -92 -70 -40 -24 -57 -76 -0 -0 -0 -0 -61 -82 -82 -66 -38 -6 -9
-0 -0 -0 -0 -0 -0 -0 -0 -0 -0 -62 -89 -18 -27 -75 -69 -33 -100 -91 -30 -48 -59 -79 -102 -155 -153 -134 -81 -19 -15 -33 -77 -0 -0 -0 -9 -71 -60 -50 -30 -33 -22 -15
-0 -17 -0 -0 -0 -0 -13 -0 -0 -18 -46 -48 -21 -0 -0 -10 -78 -104 -113 -36 -65 -87 -116 -178 -177 -232 -184 -40 -67 -27 -0 -0 -0 -0 -20 -15 -32 -63 -47 -39 -30 -34 -26
-1 -0 -0 -0 -3 -0 -31 -2 -86 -47 -59 -52 -51 -0 -67 -9 -185 -195 -159 -46 -80 -124 -170 -221 -0 -0 -0 -0 -0 -0 -0 -0 -0 -43 -36 -28 -28 -64 -58 -0 -80 -62 -23
-0 -1 -0 -1 -0 -0 -0 -2 -82 -138 -103 -56 -76 -76 -41 -137 -132 -315 -183 -200 -198 -287 -0 -0 -0 -0 -0 -0 -0 -0 -0 -0 -0 -44 -34 -16 -18 -23 -18 -0 -0 -19 -12
-0 -0 -0 -1 -0 -0 -0 -56 -109 -89 -89 -143 -76 -30 -0 -66 -182 -197 -166 -199 -249 -165 -0 -0 -0 -0 -0 -0 -0 -0 -0 -0 -25 -0 -0 -17 -27 -19 -8 -7 -12 -13 -9
-0 -0 -0 -0 -0 -0 -0 -106 -95 -81 -335 -64 -123 -6 -11 -101 -0 -136 -274 -282 -0 -0 -0 -0 -0 -0 -0 -0 -0 -0 -0 -0 -23 -22 -3 -8 -24 -24 -14 -18 -18 -7 -9
-1 -0 -0 -0 -12 -2 -8 -0 -0 -0 -0 -0 -0 -34 -61 -5 -177 -90 -45 -0 -0 -0 -0 -0 -0 -0 -0 -0 -0 -0 -0 -34 -17 -20 -30 -29 -22 -29 -34 -29 -22 -10 -7
-0 -0 -0 -14 -10 -1 -22 -112 -81 -48 -64 -32 -38 -62 -0 -0 -0 -0 -0 -0 -0 -0 -0 -0 -0 -0 -0 -0 -0 -0 -8 -26 -23 -22 -23 -23 -23 -22 -25 -17 -9 -6 -9
-0 -0 -0 -25 -7 -3 -1 -0 -10 -14 -92 -0 -0 -0 -0 -0 -0 -0 -0 -0 -0 -0 -0 -27 -0 -0 -0 -0 -0 -0 -27 -29 -32 -24 -31 -27 -19 -23 -23 -18 -22 -19 -9
-1 -8 -10 -16 -16 -0 -0 -1 -45 -46 -0 -0 -0 -0 -0 -0 -0 -0 -0 -0 -0 -0 -18 -20 -18 -12 -25 -19 -0 -38 -40 -32 -26 -29 -25 -24 -24 -24 -16 -11 -20 -17 -50
-0 -2 -5 -0 -4 -1 -4 -10 -10 -47 -0 -0 -0 -0 -0 -0 -0 -0 -0 -0 -0 -17 -21 -24 -13 -15 -14 -0 -0 -0 -30 -28 -24 -25 -31 -31 -32 -22 -29 -32 -33 -25 -18
-1 -0 -0 -0 -7 -2 -36 -0 -0 -0 -0 -0 -0 -0 -0 -0 -0 -0 -4 -14 -18 -19 -24 -21 -19 -23 -28 -0 -3 -29 -24 -22 -20 -21 -16 -17 -24 -22 -37 -28 -3 -27 -0
-0 -0 -2 -10 -40 -95 -0 -0 -0 -0 -0 -0 -0 -0 -8 -0 -0 -9 -12 -20 -15 -7 -11 -13 -62 -47 -0 -0 -0 -17 -27 -11 -0 -0 -0 -7 -20 -44 -0 -0 -0 -0 -0
-3 -16 -90 -2 -0 -0 -0 -0 -0 -0 -0 -0 -0 -0 -0 -3 -0 -0 -0 -0 -0 -0 -0 -0 -0 -0 -0 -0 -0 -0 -0 -0 -71 -0 -0 -0 -0 -0 -0 -0 -0 -0 -0
-27 -57 -32 -0 -0 -0 -0 -0 -0 -0 -0 -0 -0 -0 -0 -0 -0 -0 -0 -0 -0 -0 -0 -0 -0 -0 -0 -0 -0 -0 -0 -0 -0 -0 -0 -0 -0 -0 -0 -0 -0 -0 -0
-0 -0 -0 -0 -0 -0 -0 -0 -0 -0 -0 -0 -0 -0 -0 -0 -0 -0 -0 -0 -0 -0 -0 -0 -0 -0 -0 -0 -0 -0 -0 -0 -0 -0 -0 -0 -0 -0 -0 -0 -0 -0 -0
Wind_Speed
20 23 25 26 26 26 28 28 30 35 38 38 39 38 36 37 28 23 23 23 20 19 19 19 20 19 19 21 17 13 14 18 19 17 15 12 12 13 16 18 17 19 18
21 24 28 28 29 31 32 33 31 32 36 38 40 43 41 38 35 29 24 24 23 24 23 22 18 18 19 18 13 13 15 15 13 13 13 11 13 15 15 17 19 19 16
26 28 30 32 34 36 36 34 36 38 38 38 39 41 40 42 42 36 28 26 29 32 24 20 17 18 19 13 11 12 14 13 12 13 11 12 16 14 15 16 19 19 17
24 29 33 36 38 40 41 40 37 37 38 40 42 43 40 43 46 43 41 34 28 24 21 19 18 16 13 9 10 12 13 12 12 11 10 12 14 14 14 14 17 18 16
31 33 36 38 41 45 47 48 46 41 40 42 45 44 44 41 45 45 39 36 26 23 21 18 17 13 10 10 11 12 11 12 12 8 10 13 14 14 10 13 14 14 12
37 38 38 41 45 48 51 54 47 44 43 44 45 44 44 43 43 48 44 35 27 24 20 19 15 12 11 10 10 11 10 7 7 9 12 13 12 11 11 11 12 12 12
40 43 43 44 45 45 43 42 41 42 43 45 44 45 47 46 46 49 48 39 27 23 19 15 13 12 10 9 10 12 10 7 8 10 12 12 9 9 8 10 9 7 9
42 43 43 44 42 40 40 42 42 41 43 46 47 47 47 47 46 47 47 40 28 22 16 13 10 7 9 7 10 8 7 9 10 11 10 11 10 8 6 8 8 10 15
45 47 46 43 43 41 41 42 43 42 42 42 43 45 45 45 45 46 42 36 27 21 15 12 8 7 5 5 6 6 8 10 11 11 13 13 10 7 6 8 10 3 10
44 45 41 41 38 36 37 40 41 41 41 40 43 43 44 45 45 45 39 34 24 21 15 10 8 7 5 5 2 3 5 7 9 12 12 11 10 8 6 6 5 3 7
42 41 38 33 32 33 34 34 39 45 43 44 43 44 43 43 45 43 38 29 21 15 10 11 7 5 5 3 1 2 4 6 9 10 10 9 8 8 6 6 5 5 6
35 31 29 30 31 27 26 29 46 47 43 45 44 45 44 43 44 42 34 22 16 12 10 7 7 5 3 3 5 6 6 7 8 8 8 8 8 6 7 11 13 10 12
29 27 24 24 26 26 33 42 45 43 43 44 43 44 43 39 38 34 26 17 15 11 6 3 1 3 3 5 7 8 8 8 8 9 10 11 12 6 9 11 13 15 19
26 23 20 25 32 32 38 39 41 43 44 40 41 43 42 39 36 29 20 16 11 7 4 1 3 5 6 7 8 9 10 10 9 8 10 11 10 7 8 9 10 11 14
14 18 21 27 32 39 39 40 40 39 40 42 42 42 42 38 35 27 20 15 11 9 5 2 3 4 5 6 8 9 9 10 10 11 9 7 9 7 9 10 9 9 9
10 13 34 39 42 43 40 39 36 41 44 44 44 41 39 34 24 21 17 14 13 10 5 4 3 4 6 6 9 10 8 6 10 11 11 11 9 8 8 10 10 10 9
32 33 33 35 38 40 44 44 43 37 37 42 44 42 31 21 21 18 17 15 11 6 3 2 3 5 6 7 8 8 8 7 9 11 12 12 11 12 10 8 8 11 11
30 32 32 33 35 37 40 42 41 39 38 32 30 31 24 21 19 17 15 10 6 5 3 3 5 7 9 8 8 8 8 8 8 10 12 11 12 10 10 9 9 10 10
30 30 32 34 35 37 38 39 40 39 36 34 24 29 28 18 17 14 10 7 7 5 3 4 9 10 6 6 9 9 9 10 10 9 10 9 10 10 9 9 10 10 11
28 30 34 35 35 39 40 39 37 40 37 31 27 25 20 16 14 11 9 8 6 4 3 7 10 7 7 8 8 9 9 10 10 9 9 9 9 9 10 11 11 11 11
31 32 32 39 29 38 46 38 34 34 27 24 20 20 16 14 11 10 9 7 4 3 5 7 4 6 6 5 8 8 8 9 9 10 11 11 10 10 10 11 11 13 12
34 37 37 44 37 30 28 27 25 22 18 16 16 14 12 11 9 8 6 5 3 2 3 6 4 5 7 7 7 9 9 10 10 9 9 11 12 11 11 11 13 14 15
22 34 29 31 28 18 16 17 17 15 15 15 14 11 10 9 7 6 5 3 2 3 5 7 7 5 3 4 5 6 6 13 17 15 14 13 13 12 12 13 13 14 16
21 16 14 14 14 14 14 15 14 14 15 14 12 10 9 8 7 6 5 4 4 4 3 3 3 6 6 4 4 5 7 9 12 13 13 15 14 14 14 15 15 16 17
10 9 10 12 12 11 11 11 12 12 12 11 9 8 8 7 6 5 4 4 4 5 4 4 3 2 5 6 6 8 10 12 13 13 13 15 16 16 16 16 17 17 18
9 9 10 6 6 7 7 9 10 10 9 8 8 7 7 7 6 5 5 6 8 6 5 3 4 5 7 8 10 12 13 12 13 13 14 15 16 16 17 18 19 19 20
Wind_Direction
288 290 290 290 290 291 291 288 285 282 281 279 278 277 279 279 278 266 266 273 268 274 279 281 286 292 298 307 304 302 315 324 322 334 344 352 355 353 348 349 350 348 351
296 293 290 290 289 290 290 287 287 287 284 281 278 274 276 277 277 276 269 269 270 280 282 286 278 289 297 303 303 307 317 326 324 325 338 342 345 348 347 348 346 348 351
288 290 291 293 295 292 286 285 284 284 283 282 280 276 276 272 272 275 274 273 277 281 280 272 274 286 293 292 299 309 319 323 324 328 329 335 343 350 348 352 345 347 349
295 292 290 289 291 289 287 287 285 283 282 281 280 276 276 272 268 270 271 275 277 277 271 270 276 281 276 276 296 310 316 315 316 323 330 333 342 348 350 349 344 347 353
292 292 291 292 292 288 285 281 280 280 280 280 277 276 274 274 266 265 270 273 275 273 272 270 274 277 278 294 304 310 312 315 320 319 328 332 336 340 342 347 344 353 1
289 290 291 291 291 289 288 279 273 274 276 276 274 273 272 272 267 258 263 269 272 271 270 271 275 283 291 296 304 308 307 301 306 315 321 321 328 332 340 347 348 343 345
289 289 290 291 290 290 284 282 272 271 272 271 273 271 268 266 263 254 254 262 265 267 269 266 274 289 295 304 313 316 316 307 316 319 321 325 327 326 334 342 345 8 334
290 290 290 291 290 288 280 276 276 273 269 267 269 268 266 262 261 255 250 259 262 263 262 263 269 280 298 305 313 320 328 331 328 330 330 329 328 327 326 331 333 314 308
288 289 289 287 285 283 276 273 272 273 267 264 265 264 263 260 258 252 254 258 257 257 258 259 270 285 297 313 325 331 336 337 340 340 338 339 343 353 351 344 301 353 319
287 289 286 283 284 280 273 272 269 266 261 262 261 262 262 256 254 249 254 255 251 253 259 266 276 294 299 317 316 335 340 345 348 343 342 346 352 357 28 61 91 69 336
286 286 284 281 281 278 277 270 257 255 256 256 258 257 258 255 250 247 249 250 242 240 247 265 281 302 322 341 16 6 355 359 352 355 354 0 23 349 351 346 12 42 85
284 283 281 281 279 278 276 266 247 245 249 248 255 252 252 250 243 242 245 238 221 220 231 258 285 315 337 16 13 19 25 16 20 21 21 354 323 27 323 303 289 318 309
282 277 276 279 277 274 266 247 239 238 239 244 250 245 245 244 240 239 236 219 208 211 212 248 321 6 56 39 46 35 34 41 43 54 72 76 89 5 298 296 283 280 269
279 274 269 273 268 261 244 238 234 232 237 246 245 239 236 233 231 230 217 207 201 192 192 150 83 78 79 59 37 38 50 67 60 46 70 72 63 10 333 331 324 316 306
250 269 267 266 260 245 239 234 234 238 239 239 236 231 225 222 222 218 190 191 185 180 159 128 99 79 61 40 43 51 46 64 65 70 71 357 60 349 322 330 352 6 1
221 205 235 236 234 230 230 230 236 234 229 226 224 222 216 218 209 194 187 165 155 151 157 132 106 78 76 64 73 69 56 35 77 77 84 86 73 64 69 339 345 358 34
201 206 207 203 209 212 215 216 213 223 223 219 215 209 209 190 178 167 156 148 147 160 156 166 111 89 76 83 71 61 64 56 76 80 90 93 93 95 91 57 16 345 350
195 195 195 195 196 199 200 202 203 205 206 201 202 201 188 174 158 152 150 156 188 221 199 140 105 96 98 90 77 59 58 54 55 75 92 90 95 80 61 19 14 18 19
185 187 186 187 188 189 190 193 195 193 196 193 177 183 186 166 151 150 169 174 207 183 159 113 109 103 91 83 83 74 68 68 61 56 62 60 57 65 44 38 30 31 29
184 182 178 182 185 178 179 183 185 179 175 176 175 178 178 153 164 177 192 198 198 173 138 111 107 92 88 95 80 73 66 70 64 56 54 50 44 34 48 48 46 32 30
163 159 170 169 179 171 153 168 177 167 170 171 172 177 170 162 169 184 196 193 186 145 111 102 97 90 94 80 77 69 61 55 50 57 72 72 59 48 48 34 27 24 39
158 153 155 151 153 156 161 165 164 163 159 154 157 156 152 171 176 178 179 186 179 142 106 97 69 83 90 79 70 71 64 65 63 52 58 69 77 75 66 56 45 34 26
139 136 144 152 158 148 149 153 158 143 140 158 169 165 165 163 154 161 163 167 130 100 95 89 88 70 42 14 1 14 19 84 100 85 75 67 64 50 50 44 36 31 28
150 141 138 144 146 148 146 151 151 153 165 168 166 160 153 150 156 143 135 126 111 114 129 106 92 67 54 36 15 9 12 28 52 67 62 61 55 48 46 42 37 34 33
139 126 141 155 154 146 143 157 158 160 165 162 152 140 135 141 151 143 161 152 125 107 121 97 71 61 60 49 39 36 40 49 56 61 58 60 58 51 46 41 39 32 31
153 152 163 132 131 148 137 133 143 148 155 151 139 142 148 152 133 131 140 135 112 104 98 86 78 72 64 54 53 53 51 54 55 56 57 58 56 51 48 45 40 35 29